Regional Weather Roundup
Issued by NWS Sioux Falls, SD

Home | Current Version | Previous Version | Text Only | Print | Product List | Glossary On
Versions: 1 2 3 4 5 6 7 8 9 10 11 12 13 14 15 16 17 18 19 20 21 22 23 24 25 26 27 28 29 30 31 32 33 34 35 36 37 38 39 40 41 42 43 44 45 46 47 48 49 50
000
ASUS43 KFSD 232010
RWRFSD

WEATHER ROUNDUP FOR SE SOUTH DAKOTA/SW MINNESOTA/NW IOWA
NATIONAL WEATHER SERVICE SIOUX FALLS SD
200 PM CST TUE JAN 23 2018

NOTE: "FAIR" INDICATES FEW OR NO CLOUDS BELOW 12,000 FEET WITH NO
SIGNIFICANT WEATHER AND OR OBSTRUCTIONS TO VISIBILITY.


SDZ038>040-050-052>070-232100-
SOUTHEAST SOUTH DAKOTA

CITY           SKY/WX    TMP DP  RH WIND       PRES   REMARKS
BROOKINGS      CLOUDY    23  20  88 W8        30.08F WCI  14
CHAMBERLAIN    CLOUDY    35  32  88 W7        30.10S WCI  29
HURON          MOSUNNY   24  22  91 SW3       30.10F
MADISON        CLOUDY    21  21 100 W9        30.08F WCI  11
MITCHELL       MOSUNNY   26  23  88 W5        30.11F WCI  20
SIOUX FALLS    CLOUDY    23  20  88 W7        30.11S WCI  15
WINNER         FAIR      38  28  67 W15       30.11F
YANKTON        CLOUDY    27  21  80 W6        30.14F WCI  20
$$

MNZ071-072-080-081-089-090-097-098-232100-
SOUTHWEST MINNESOTA

CITY           SKY/WX    TMP DP  RH WIND       PRES   REMARKS
FAIRMONT       SUNNY     25  20  81 NW14      30.09F WCI  13
JACKSON        SUNNY     23  18  80 NW10      30.09S WCI  12
LUVERNE        CLOUDY    23  19  86 W6        30.11S WCI  16
MARSHALL       CLOUDY    25  19  78 W7        30.10F WCI  17
MONTEVIDEO     CLOUDY    28  19  69 W7        30.10F WCI  21
PIPESTONE      CLOUDY    21  19  93 W7        30.08S WCI  13
REDWOOD FALLS  SUNNY     29  18  63 NW9       30.09F WCI  20
TRACY          CLOUDY    26  21  83 NW6       30.09S WCI  19
WINDOM         SUNNY     23   9  54 W13       30.08F WCI  11
WORTHINGTON    CLOUDY    24  20  84 W10       30.09  WCI  14
$$

IAZ001>003-012>014-020>022-031-032-NEZ013-014-SDZ071-232100-
NORTHWEST IOWA

CITY           SKY/WX    TMP DP  RH WIND       PRES   REMARKS
CHEROKEE       CLOUDY    24  21  89 W12       30.13F WCI  13
DENISON        CLOUDY    25  21  86 NW9       30.16R WCI  15
ESTHERVILLE    FLURRIES  22  17  81 NW14      30.09S WCI   9
LE MARS        CLOUDY    23  21  93 W9        30.14F WCI  13
ORANGE CITY    CLOUDY    23  21  93 W8        30.11F WCI  14
SHELDON        CLOUDY    23  19  86 NW9       30.10S WCI  13
SIOUX CITY     CLOUDY    23  20  88 W7        30.16F WCI  15
SPENCER        MIX PCPN  24  18  77 NW10      30.10F WCI  14
STORM LAKE       N/A     23  19  86 NW9       30.11S WCI  13
$$

ABBREVIATIONS USED IN REMARKS
   TC - TEMPERATURE IN CELSIUS
  WCI - WIND CHILL INDEX
   HX - HEAT INDEX
  VSB - VISIBILITY





USA.gov is the U.S. government's official web portal to all federal, state and local government web resources and services.